Location: Newark
(54.4333°N, 18.5500°E)
Time: 08:48:45
(UTC+00:00)

Envisat - Pass Details

Date: 08 December 2019
Orbit: 764 x 766 km, 98.1° (Epoch: 19 January)

Event Time Altitude Azimuth Distance (km) Brightness Sun altitude
Rises 17:12:05 0° 186° (S) 3,224 6.4 -23.2°
Reaches altitude 10° 17:14:31 10° 194° (SSW) 2,302 5.7 -23.6°
Maximum altitude 17:19:16 40° 264° (W) 1,133 4.3 -24.3°
Drops below altitude 10° 17:24:04 10° 333° (NNW) 2,318 5.7 -25.0°
Sets 17:26:32 0° 341° (NNW) 3,249 6.4 -25.3°
